Location: Casco Millpond
(44.5581°N, 87.6111°W)
Time: 09:52:16
(UTC+00:00)

Meteor 2-19 Rocket - Pass Details

Date: 16 January 2026
Orbit: 935 x 959 km, 82.5° (Epoch: 10 February)

Event Time Altitude Azimuth Distance (km) Brightness Sun altitude
Rises 12:19:45 0° 349° (N) 3,610 7.2 -11.1°
Reaches altitude 10° 12:22:15 10° 348° (NNW) 2,660 6.5 -10.7°
Maximum altitude 12:28:18 74° 265° (W) 976 4.4 -9.7°
Drops below altitude 10° 12:34:17 10° 181° (S) 2,637 7.0 -8.7°
Sets 12:36:46 0° 180° (S) 3,577 7.8 -8.3°
